Time,TemperatureF,DewpointF,PressureIn,WindDirection,WindDirectionDegrees,WindSpeedMPH,WindSpeedGustMPH,Humidity,HourlyPrecipIn,Conditions,Clouds,dailyrainin,SoftwareType,DateUTC
2013-05-24 00:05:00,77.6,73.0,30.00,NW,308,0.0,5.0,85,0.00,,,0.00,weatherlink.com 1.10,2013-05-24 04:05:00,
2013-05-24 00:20:00,77.5,73.0,30.00,NW,308,0.0,3.0,85,0.00,,,0.00,weatherlink.com 1.10,2013-05-24 04:20:00,
2013-05-24 00:36:00,77.3,73.0,29.99,NW,308,0.0,3.0,86,0.00,,,0.00,weatherlink.com 1.10,2013-05-24 04:36:00,
2013-05-24 00:51:00,77.1,73.0,29.99,NW,308,1.0,6.0,87,0.00,,,0.00,weatherlink.com 1.10,2013-05-24 04:51:00,
2013-05-24 01:06:00,77.1,73.0,29.98,NW,308,1.0,8.0,87,0.00,,,0.00,weatherlink.com 1.10,2013-05-24 05:06:00,
2013-05-24 01:21:00,76.9,73.0,29.98,NW,308,2.0,6.0,87,0.00,,,0.00,weatherlink.com 1.10,2013-05-24 05:21:00,
2013-05-24 01:36:00,76.9,73.0,29.97,NW,308,1.0,5.0,87,0.00,,,0.00,weatherlink.com 1.10,2013-05-24 05:36:00,
2013-05-24 01:50:00,77.0,73.0,29.97,NW,309,3.0,6.0,87,0.00,,,0.00,weatherlink.com 1.10,2013-05-24 05:50:00,
2013-05-24 02:05:00,76.7,72.0,29.97,NW,304,0.0,6.0,86,0.00,,,0.00,weatherlink.com 1.10,2013-05-24 06:05:00,
2013-05-24 02:21:00,76.8,72.0,29.96,NW,306,5.0,7.0,86,0.00,,,0.00,weatherlink.com 1.10,2013-05-24 06:21:00,
2013-05-24 02:36:00,76.9,73.0,29.96,WNW,291,0.0,5.0,86,0.00,,,0.00,weatherlink.com 1.10,2013-05-24 06:36:00,
2013-05-24 02:51:00,76.9,73.0,29.96,WNW,290,0.0,3.0,87,0.00,,,0.00,weatherlink.com 1.10,2013-05-24 06:51:00,
2013-05-24 03:06:00,76.7,73.0,29.96,WNW,292,0.0,1.0,87,0.00,,,0.00,weatherlink.com 1.10,2013-05-24 07:06:00,
2013-05-24 03:21:00,76.7,73.0,29.97,WNW,294,0.0,1.0,89,0.00,,,0.00,weatherlink.com 1.10,2013-05-24 07:21:00,
2013-05-24 03:36:00,76.4,73.0,29.96,WNW,294,0.0,0.0,89,0.00,,,0.00,weatherlink.com 1.10,2013-05-24 07:36:00,
2013-05-24 03:51:00,76.0,73.0,29.96,WNW,294,0.0,2.0,89,0.00,,,0.00,weatherlink.com 1.10,2013-05-24 07:51:00,
2013-05-24 04:06:00,76.0,73.0,29.97,WNW,294,0.0,2.0,89,0.00,,,0.00,weatherlink.com 1.10,2013-05-24 08:06:00,
2013-05-24 04:21:00,76.0,73.0,29.97,WNW,294,0.0,3.0,90,0.00,,,0.00,weatherlink.com 1.10,2013-05-24 08:21:00,
2013-05-24 04:37:00,75.8,73.0,29.97,WNW,294,0.0,2.0,90,0.00,,,0.00,weatherlink.com 1.10,2013-05-24 08:37:00,
2013-05-24 04:52:00,75.8,73.0,29.98,WNW,294,0.0,4.0,91,0.00,,,0.00,weatherlink.com 1.10,2013-05-24 08:52:00,
2013-05-24 05:07:00,75.7,73.0,29.98,WNW,294,0.0,2.0,91,0.00,,,0.00,weatherlink.com 1.10,2013-05-24 09:07:00,
2013-05-24 05:22:00,75.4,73.0,29.98,WNW,296,0.0,4.0,91,0.00,,,0.00,weatherlink.com 1.10,2013-05-24 09:22:00,
2013-05-24 05:37:00,75.2,73.0,29.98,NW,322,0.0,4.0,91,0.00,,,0.00,weatherlink.com 1.10,2013-05-24 09:37:00,
2013-05-24 05:52:00,75.1,72.0,29.99,NW,322,0.0,4.0,91,0.00,,,0.00,weatherlink.com 1.10,2013-05-24 09:52:00,
2013-05-24 06:07:00,75.0,72.0,29.99,WNW,282,0.0,5.0,91,0.00,,,0.00,weatherlink.com 1.10,2013-05-24 10:07:00,
2013-05-24 06:22:00,74.9,72.0,29.99,NW,309,0.0,3.0,91,0.00,,,0.00,weatherlink.com 1.10,2013-05-24 10:22:00,
2013-05-24 06:37:00,74.8,72.0,30.00,NW,309,0.0,3.0,91,0.00,,,0.00,weatherlink.com 1.10,2013-05-24 10:37:00,
2013-05-24 06:52:00,74.7,72.0,30.00,NW,309,0.0,4.0,91,0.00,,,0.00,weatherlink.com 1.10,2013-05-24 10:52:00,
2013-05-24 07:08:00,74.9,72.0,30.00,NW,309,0.0,3.0,91,0.00,,,0.00,weatherlink.com 1.10,2013-05-24 11:08:00,
2013-05-24 07:23:00,75.7,73.0,30.01,NW,310,0.0,2.0,90,0.00,,,0.00,weatherlink.com 1.10,2013-05-24 11:23:00,
2013-05-24 07:39:00,77.3,74.0,30.02,NW,310,0.0,1.0,88,0.00,,,0.00,weatherlink.com 1.10,2013-05-24 11:39:00,
2013-05-24 07:54:00,79.0,74.0,30.02,NW,310,0.0,1.0,84,0.00,,,0.00,weatherlink.com 1.10,2013-05-24 11:54:00,
2013-05-24 08:09:00,80.5,74.0,30.02,North,11,0.0,3.0,80,0.00,,,0.00,weatherlink.com 1.10,2013-05-24 12:09:00,
2013-05-24 08:23:00,81.1,74.0,30.02,North,11,0.0,1.0,79,0.00,,,0.00,weatherlink.com 1.10,2013-05-24 12:23:00,
2013-05-24 08:39:00,82.8,75.0,30.02,North,11,0.0,1.0,77,0.00,,,0.00,weatherlink.com 1.10,2013-05-24 12:39:00,
2013-05-24 08:54:00,84.0,75.0,30.04,WNW,293,0.0,5.0,75,0.00,,,0.00,weatherlink.com 1.10,2013-05-24 12:54:00,
2013-05-24 09:09:00,85.1,74.0,30.04,SSW,210,0.0,6.0,69,0.00,,,0.00,weatherlink.com 1.10,2013-05-24 13:09:00,
2013-05-24 09:25:00,86.0,74.0,30.04,NNW,328,0.0,5.0,67,0.00,,,0.00,weatherlink.com 1.10,2013-05-24 13:25:00,
2013-05-24 09:40:00,86.8,73.0,30.04,ESE,111,4.0,4.0,63,0.00,,,0.00,weatherlink.com 1.10,2013-05-24 13:40:00,
2013-05-24 09:55:00,87.3,73.0,30.04,NNW,334,0.0,4.0,62,0.00,,,0.00,weatherlink.com 1.10,2013-05-24 13:55:00,
2013-05-24 10:10:00,88.6,73.0,30.04,NNW,329,1.0,5.0,60,0.00,,,0.00,weatherlink.com 1.10,2013-05-24 14:10:00,
2013-05-24 10:25:00,89.8,74.0,30.04,WNW,295,0.0,5.0,59,0.00,,,0.00,weatherlink.com 1.10,2013-05-24 14:25:00,
2013-05-24 10:40:00,88.4,73.0,30.05,SE,126,0.0,3.0,60,0.00,,,0.00,weatherlink.com 1.10,2013-05-24 14:40:00,
2013-05-24 10:56:00,89.7,72.0,30.05,SE,125,1.0,2.0,57,0.00,,,0.00,weatherlink.com 1.10,2013-05-24 14:56:00,
2013-05-24 11:11:00,89.3,74.0,30.05,SE,125,1.0,2.0,60,0.00,,,0.00,weatherlink.com 1.10,2013-05-24 15:11:00,
2013-05-24 11:25:00,87.1,72.0,30.05,SE,125,0.0,2.0,62,0.00,,,0.00,weatherlink.com 1.10,2013-05-24 15:25:00,
2013-05-24 11:40:00,90.9,74.0,30.05,SE,125,0.0,3.0,57,0.00,,,0.00,weatherlink.com 1.10,2013-05-24 15:40:00,
2013-05-24 11:56:00,93.1,75.0,30.05,WSW,246,4.0,7.0,56,0.00,,,0.00,weatherlink.com 1.10,2013-05-24 15:56:00,
2013-05-24 12:11:00,93.7,76.0,30.04,WNW,296,1.0,7.0,56,0.00,,,0.00,weatherlink.com 1.10,2013-05-24 16:11:00,
2013-05-24 12:26:00,94.3,76.0,30.04,West,272,2.0,7.0,55,0.00,,,0.00,weatherlink.com 1.10,2013-05-24 16:26:00,
2013-05-24 12:41:00,94.2,76.0,30.04,WNW,296,1.0,5.0,55,0.00,,,0.00,weatherlink.com 1.10,2013-05-24 16:41:00,
2013-05-24 12:57:00,93.6,75.0,30.03,WSW,254,5.0,10.0,55,0.00,,,0.00,weatherlink.com 1.10,2013-05-24 16:57:00,
2013-05-24 13:12:00,93.1,76.0,30.02,WSW,255,2.0,9.0,58,0.00,,,0.00,weatherlink.com 1.10,2013-05-24 17:12:00,
2013-05-24 13:26:00,92.7,76.0,30.02,WSW,244,0.0,10.0,58,0.00,,,0.00,weatherlink.com 1.10,2013-05-24 17:26:00,
2013-05-24 13:41:00,92.7,76.0,30.02,WNW,287,7.0,9.0,58,0.00,,,0.00,weatherlink.com 1.10,2013-05-24 17:41:00,
2013-05-24 13:57:00,92.8,76.0,30.02,West,269,1.0,11.0,59,0.00,,,0.00,weatherlink.com 1.10,2013-05-24 17:57:00,
2013-05-24 14:12:00,92.3,76.0,30.02,NNW,332,9.0,12.0,59,0.00,,,0.00,weatherlink.com 1.10,2013-05-24 18:12:00,
2013-05-24 14:27:00,92.0,76.0,30.02,WNW,285,2.0,12.0,59,0.00,,,0.00,weatherlink.com 1.10,2013-05-24 18:27:00,
2013-05-24 14:42:00,91.8,76.0,30.02,WNW,284,3.0,11.0,60,0.00,,,0.00,weatherlink.com 1.10,2013-05-24 18:42:00,
2013-05-24 14:58:00,91.3,75.0,30.02,West,280,5.0,14.0,60,0.00,,,0.00,weatherlink.com 1.10,2013-05-24 18:58:00,
2013-05-24 15:12:00,90.7,75.0,30.01,NW,315,7.0,12.0,60,0.00,,,0.00,weatherlink.com 1.10,2013-05-24 19:12:00,
2013-05-24 15:27:00,89.5,75.0,30.01,NW,309,5.0,11.0,63,0.00,,,0.00,weatherlink.com 1.10,2013-05-24 19:27:00,
2013-05-24 15:42:00,89.1,76.0,30.00,West,279,9.0,12.0,65,0.00,,,0.00,weatherlink.com 1.10,2013-05-24 19:42:00,
2013-05-24 15:57:00,88.2,75.0,30.00,WNW,298,9.0,14.0,66,0.00,,,0.00,weatherlink.com 1.10,2013-05-24 19:57:00,
2013-05-24 16:12:00,87.6,76.0,30.00,NNW,342,13.0,15.0,68,0.00,,,0.00,weatherlink.com 1.10,2013-05-24 20:12:00,
2013-05-24 16:28:00,87.1,76.0,30.00,WNW,290,6.0,16.0,69,0.00,,,0.00,weatherlink.com 1.10,2013-05-24 20:28:00,
2013-05-24 16:43:00,86.9,76.0,30.00,WNW,301,9.0,15.0,71,0.00,,,0.00,weatherlink.com 1.10,2013-05-24 20:43:00,
2013-05-24 16:58:00,86.9,76.0,30.00,NW,321,3.0,16.0,70,0.00,,,0.00,weatherlink.com 1.10,2013-05-24 20:58:00,
2013-05-24 17:14:00,86.6,76.0,29.99,WNW,282,5.0,15.0,71,0.00,,,0.00,weatherlink.com 1.10,2013-05-24 21:14:00,
2013-05-24 17:29:00,86.3,75.0,29.99,NW,326,5.0,17.0,69,0.00,,,0.00,weatherlink.com 1.10,2013-05-24 21:29:00,
2013-05-24 17:44:00,86.6,76.0,29.98,WNW,296,8.0,10.0,71,0.00,,,0.00,weatherlink.com 1.10,2013-05-24 21:44:00,
2013-05-24 17:59:00,86.6,76.0,29.98,WNW,282,6.0,13.0,70,0.00,,,0.00,weatherlink.com 1.10,2013-05-24 21:59:00,
2013-05-24 18:14:00,86.5,74.0,29.98,NW,305,7.0,11.0,66,0.00,,,0.00,weatherlink.com 1.10,2013-05-24 22:14:00,
2013-05-24 18:29:00,86.1,74.0,29.98,NW,310,1.0,14.0,68,0.00,,,0.00,weatherlink.com 1.10,2013-05-24 22:29:00,
2013-05-24 18:44:00,85.7,72.0,29.99,WNW,296,1.0,14.0,63,0.00,,,0.00,weatherlink.com 1.10,2013-05-24 22:44:00,
2013-05-24 18:59:00,85.6,73.0,29.99,NW,304,2.0,11.0,65,0.00,,,0.00,weatherlink.com 1.10,2013-05-24 22:59:00,
2013-05-24 19:14:00,85.8,71.0,29.99,WNW,286,0.0,12.0,61,0.00,,,0.00,weatherlink.com 1.10,2013-05-24 23:14:00,
2013-05-24 19:29:00,85.8,71.0,29.99,WNW,284,0.0,11.0,62,0.00,,,0.00,weatherlink.com 1.10,2013-05-24 23:29:00,
2013-05-24 19:44:00,85.0,72.0,29.99,WNW,303,0.0,13.0,66,0.00,,,0.00,weatherlink.com 1.10,2013-05-24 23:44:00,
2013-05-24 20:15:00,83.5,74.0,30.00,WNW,296,1.0,6.0,72,0.00,,,0.00,weatherlink.com 1.10,2013-05-25 00:15:00,
2013-05-24 20:30:00,82.9,74.0,30.00,WNW,296,0.0,5.0,74,0.00,,,0.00,weatherlink.com 1.10,2013-05-25 00:30:00,
2013-05-24 20:44:00,82.4,74.0,30.01,WNW,296,0.0,4.0,75,0.00,,,0.00,weatherlink.com 1.10,2013-05-25 00:44:00,
2013-05-24 20:59:00,82.1,74.0,30.01,WNW,296,0.0,2.0,76,0.00,,,0.00,weatherlink.com 1.10,2013-05-25 00:59:00,
2013-05-24 21:14:00,81.4,71.0,30.03,South,182,3.0,3.0,70,0.00,,,0.00,weatherlink.com 1.10,2013-05-25 01:14:00,
2013-05-24 21:29:00,81.4,68.0,30.02,SE,143,0.0,4.0,64,0.00,,,0.00,weatherlink.com 1.10,2013-05-25 01:29:00,
2013-05-24 21:44:00,81.2,67.0,30.04,SSE,163,5.0,7.0,63,0.00,,,0.00,weatherlink.com 1.10,2013-05-25 01:44:00,
2013-05-24 22:01:00,80.2,68.0,30.04,SE,138,0.0,0.0,67,0.00,,,0.00,weatherlink.com 1.10,2013-05-25 02:01:00,
2013-05-24 22:16:00,79.7,68.0,30.05,SE,138,0.0,0.0,68,0.00,,,0.00,weatherlink.com 1.10,2013-05-25 02:16:00,
2013-05-24 22:31:00,79.0,69.0,30.05,SE,138,0.0,0.0,71,0.00,,,0.00,weatherlink.com 1.10,2013-05-25 02:31:00,
2013-05-24 22:46:00,78.5,68.0,30.05,SE,138,0.0,0.0,70,0.00,,,0.00,weatherlink.com 1.10,2013-05-25 02:46:00,
2013-05-24 23:01:00,77.9,68.0,30.05,SE,138,0.0,0.0,71,0.00,,,0.00,weatherlink.com 1.10,2013-05-25 03:01:00,
2013-05-24 23:16:00,77.6,68.0,30.05,SE,138,0.0,0.0,72,0.00,,,0.00,weatherlink.com 1.10,2013-05-25 03:16:00,
2013-05-24 23:31:00,77.7,69.0,30.05,SE,138,0.0,0.0,74,0.00,,,0.00,weatherlink.com 1.10,2013-05-25 03:31:00,
2013-05-24 23:46:00,77.1,68.0,30.06,SE,138,0.0,0.0,74,0.00,,,0.00,weatherlink.com 1.10,2013-05-25 03:46:00,